Location: Unspecified
(0.0000°N, 0.0000°E)
Time: 01:22:37
(UTC+00:00)

SR - Pass Details

Date: 09 October 2020
Orbit: 581 x 874 km, 66.7° (Epoch: 25 October)

Event Time Altitude Azimuth Distance (km) Brightness Sun altitude
Rises 18:33:49 0° 297° (WNW) 3,304 ? -11.6°
Reaches altitude 10° 18:38:53 10° 256° (WSW) 2,449 ? -12.9°
Maximum altitude 18:39:43 10° 248° (WSW) 2,437 ? -13.1°
Drops below altitude 10° 18:40:34 10° 239° (WSW) 2,469 ? -13.3°
Sets 18:45:51 0° 199° (SSW) 3,451 ? -14.6°
